Location: Castelbiague
(43.0361°N, 0.9246°E)
Time: 10:20:44
(UTC+00:00)

Cosmos 1626 - Pass Details

Date: 17 June 2021
Orbit: 488 x 493 km, 82.5° (Epoch: 03 August)

Event Time Altitude Azimuth Distance (km) Brightness Sun altitude
Exits shadow 21:04:25 21° 144° (SE) 1,158 3.3 -12.6°
Maximum altitude 21:06:18 35° 92° (E) 817 2.8 -12.8°
Drops below altitude 10° 21:09:42 10° 26° (NNE) 1,695 5.1 -13.2°
Sets 21:11:55 0° 17° (NNE) 2,583 6.3 -13.4°
